TimeCDT,TemperatureF,Dew PointF,Humidity,Sea Level PressureIn,VisibilityMPH,Wind Direction,Wind SpeedMPH,Gust SpeedMPH,PrecipitationIn,Events,Conditions,WindDirDegrees,DateUTC
12:53 AM,86.0,70.0,59,29.91,10.0,SSW,11.5,-,N/A,,Clear,200,2013-08-06 05:53:00
1:53 AM,84.0,71.1,65,29.90,10.0,SSW,10.4,18.4,N/A,,Clear,210,2013-08-06 06:53:00
2:53 AM,82.9,72.0,69,29.89,10.0,SW,10.4,-,N/A,,Clear,220,2013-08-06 07:53:00
3:53 AM,82.0,73.0,74,29.89,10.0,SW,9.2,-,N/A,,Clear,220,2013-08-06 08:53:00
4:53 AM,82.0,73.0,74,29.89,10.0,SW,9.2,-,N/A,,Clear,230,2013-08-06 09:53:00
5:53 AM,80.1,72.0,76,29.91,10.0,SW,6.9,-,N/A,,Clear,220,2013-08-06 10:53:00
6:53 AM,80.1,73.0,79,29.92,10.0,SW,8.1,-,N/A,,Clear,220,2013-08-06 11:53:00
7:53 AM,81.0,72.0,74,29.94,10.0,SSW,9.2,-,N/A,,Clear,210,2013-08-06 12:53:00
8:53 AM,84.0,71.1,65,29.95,10.0,SW,10.4,17.3,N/A,,Clear,230,2013-08-06 13:53:00
9:53 AM,87.1,68.0,53,29.95,10.0,SSW,12.7,-,N/A,,Clear,210,2013-08-06 14:53:00
10:53 AM,89.1,69.1,52,29.94,10.0,Variable,5.8,-,N/A,,Clear,0,2013-08-06 15:53:00
11:53 AM,91.9,68.0,45,29.94,10.0,WSW,5.8,-,N/A,,Clear,250,2013-08-06 16:53:00
12:53 PM,93.9,68.0,43,29.92,10.0,Variable,3.5,-,N/A,,Clear,0,2013-08-06 17:53:00
1:53 PM,97.0,68.0,39,29.91,10.0,SSE,12.7,17.3,N/A,,Clear,160,2013-08-06 18:53:00
2:53 PM,97.0,64.9,35,29.88,10.0,Variable,4.6,-,N/A,,Clear,0,2013-08-06 19:53:00
3:53 PM,98.1,66.0,35,29.87,10.0,Variable,3.5,-,N/A,,Clear,0,2013-08-06 20:53:00
4:53 PM,99.0,64.9,33,29.86,10.0,SSW,5.8,-,N/A,,Clear,200,2013-08-06 21:53:00
5:53 PM,99.0,66.0,34,29.84,10.0,SSE,6.9,-,N/A,,Scattered Clouds,150,2013-08-06 22:53:00
6:53 PM,96.1,66.9,38,29.83,10.0,SE,9.2,-,N/A,,Clear,140,2013-08-06 23:53:00
7:53 PM,93.0,66.9,42,29.83,10.0,SE,10.4,-,N/A,,Clear,140,2013-08-07 00:53:00
8:53 PM,91.0,66.9,45,29.85,10.0,SE,8.1,-,N/A,,Clear,140,2013-08-07 01:53:00
9:53 PM,89.1,68.0,50,29.86,10.0,SE,9.2,-,N/A,,Clear,140,2013-08-07 02:53:00
10:53 PM,87.1,69.1,55,29.88,10.0,SSE,8.1,-,N/A,,Clear,150,2013-08-07 03:53:00
11:53 PM,88.0,70.0,55,29.87,10.0,South,9.2,-,N/A,,Clear,170,2013-08-07 04:53:00